Darstellungsparameter: Aktuell verwendete Einstellungen:
Skalierung der Graphiken ... ?
xyx+y,   Skalierungsfaktor:      Skalierung: Modus: x, Faktor: 1
Darstellungszeitraum ... ?
Vom - - bis: - -   Zeitraum: 14.09.2011 - 14.09.2011
Min/Max/Avg-Anzeige ... ?
Zeige MMA aktuell
Zeige MMA Monat
Zeige MMA alles
Zeige --A aktuell
Zeige --A Monat
Zeige --A alles
Keine MMA-Anzeige
MMA:
Keine MMA-Graphiken
MMA-Basis: 14.09.2011 - 14.09.2011
Quicknavigation für Darstellung... ?
Tage:      1T, 2T, 3T, 5T -1T -2T -3T -5T +1T +2T +3T +5T
Wochen: 1W, 2W, 3W -1W -2W -3W +1W +2W +3W
Monate: 1M, 3M, 6M -1M -3M -6M +1M +3M +6M
Jahre:    1J, 3J, 5J, 10J -1J -3J -5J -10J +1J +3J +5J +10J
Nutze für die Darstellung ... ?
Originaldaten oder Mittelwerte auf ...
Stundenbasis Tagesbasis Wochenbasis
Monatsbasis Jahresbasis      Datenbasis: Original-Daten
Darstellen als:
Statistik (Auto) Statistik J:M      Darstellung:
Zur Graphik,    zurück zur Übersicht aller Sensoren.
 
Tabellarische Datenbersicht: ?
 
Sensor: Nr:Datum:Temp:Abs-Feuchte:Windchill:Wind:
Aussen-T/F 1 14-09-2011 00:09:03 12.8 C 9.07 g/m*3 12.8 C 0 km/h
2 14-09-2011 00:21:03 12.8 C 8.96 g/m*3 12.8 C 0 km/h
3 14-09-2011 00:33:03 12.7 C 8.91 g/m*3 12.7 C 0 km/h
4 14-09-2011 00:45:03 12.5 C 8.91 g/m*3 12.5 C 0 km/h
5 14-09-2011 00:57:03 12.5 C 9.13 g/m*3 12.5 C 0 km/h
6 14-09-2011 01:09:03 12.4 C 9.07 g/m*3 12.4 C 0 km/h
7 14-09-2011 01:21:03 12.7 C 9.35 g/m*3 12.7 C 0 km/h
8 14-09-2011 01:33:03 13 C 9.41 g/m*3 13 C 0 km/h
9 14-09-2011 01:45:03 13.1 C 9.24 g/m*3 13.1 C 0 km/h
10 14-09-2011 01:57:03 13.1 C 9.01 g/m*3 13.1 C 0 km/h
11 14-09-2011 02:09:03 12.8 C 8.85 g/m*3 12.8 C 0 km/h
12 14-09-2011 02:21:03 12.4 C 8.74 g/m*3 12.4 C 0 km/h
13 14-09-2011 02:33:03 12 C 8.74 g/m*3 12 C 0 km/h
14 14-09-2011 02:45:03 11.8 C 8.84 g/m*3 11.8 C 0 km/h
15 14-09-2011 02:57:03 11.6 C 8.73 g/m*3 11.6 C 0 km/h
16 14-09-2011 03:09:03 11.5 C 8.78 g/m*3 11.5 C 0 km/h
17 14-09-2011 03:21:03 10.8 C 8.4 g/m*3 10.8 C 0 km/h
18 14-09-2011 03:33:03 10.9 C 8.55 g/m*3 10.9 C 0 km/h
19 14-09-2011 03:45:03 10.9 C 8.55 g/m*3 10.9 C 0 km/h
20 14-09-2011 03:57:03 11 C 8.61 g/m*3 11 C 0 km/h
21 14-09-2011 04:09:03 11.8 C 8.74 g/m*3 11.8 C 0 km/h
22 14-09-2011 04:21:03 12.1 C 7.94 g/m*3 12.1 C 0 km/h
23 14-09-2011 04:33:04 11.7 C 7.64 g/m*3 11.7 C 0 km/h
24 14-09-2011 04:45:04 11.5 C 7.54 g/m*3 11.5 C 0 km/h
25 14-09-2011 04:57:04 11.6 C 7.59 g/m*3 11.6 C 0 km/h
Sensor: Nr:Datum:Temp:Abs-Feuchte:Windchill:Wind:
Aussen-T/F 26 14-09-2011 05:09:04 11.5 C 7.64 g/m*3 11.5 C 0 km/h
27 14-09-2011 05:21:04 11 C 7.51 g/m*3 11 C 0 km/h
28 14-09-2011 05:33:04 10.4 C 7.61 g/m*3 10.4 C 0 km/h
29 14-09-2011 05:45:04 10.1 C 7.56 g/m*3 10.1 C 0 km/h
30 14-09-2011 05:57:04 9.9 C 7.66 g/m*3 9.9 C 0 km/h
31 14-09-2011 06:09:04 9.8 C 7.7 g/m*3 9.8 C 0 km/h
32 14-09-2011 06:21:04 9.7 C 7.65 g/m*3 9.7 C 0 km/h
33 14-09-2011 06:33:02 9.6 C 7.69 g/m*3 9.6 C 0 km/h
34 14-09-2011 06:45:02 9.5 C 7.65 g/m*3 9.5 C 0 km/h
35 14-09-2011 06:57:02 9.3 C 7.64 g/m*3 9.3 C 0 km/h
36 14-09-2011 07:09:02 9.3 C 7.64 g/m*3 9.3 C 0 km/h
37 14-09-2011 07:21:02 9.5 C 7.74 g/m*3 9.5 C 0 km/h
38 14-09-2011 07:33:02 9.7 C 7.84 g/m*3 9.7 C 0 km/h
39 14-09-2011 07:45:01 10.1 C 7.75 g/m*3 10.1 C 0 km/h
40 14-09-2011 07:57:01 10.5 C 7.66 g/m*3 10.5 C 0 km/h
41 14-09-2011 08:09:02 10.6 C 7.52 g/m*3 10.6 C 0 km/h
42 14-09-2011 08:21:01 10.8 C 7.51 g/m*3 10.8 C 0 km/h
43 14-09-2011 08:33:01 11 C 7.61 g/m*3 11 C 0 km/h
44 14-09-2011 08:45:01 11.4 C 7.6 g/m*3 11.4 C 0 km/h
45 14-09-2011 08:57:01 11.5 C 7.54 g/m*3 11.5 C 0 km/h
46 14-09-2011 09:09:02 11.5 C 7.33 g/m*3 11.5 C 0 km/h
47 14-09-2011 09:21:01 11.7 C 7.32 g/m*3 11.7 C 0 km/h
48 14-09-2011 09:33:01 11.9 C 7.2 g/m*3 11.9 C 0 km/h
49 14-09-2011 09:45:02 12.2 C 7.01 g/m*3 12.2 C 0 km/h
50 14-09-2011 09:57:02 12.2 C 7.01 g/m*3 12.2 C 0 km/h
Sensor: Nr:Datum:Temp:Abs-Feuchte:Windchill:Wind:
Aussen-T/F 51 14-09-2011 10:09:02 12.6 C 6.97 g/m*3 12.6 C 0 km/h
52 14-09-2011 10:21:01 12.8 C 7.06 g/m*3 12.8 C 0 km/h
53 14-09-2011 10:33:02 13 C 6.92 g/m*3 13 C 0 km/h
54 14-09-2011 10:45:01 13.3 C 6.82 g/m*3 13.3 C 0 km/h
55 14-09-2011 10:57:01 13.4 C 6.86 g/m*3 13.4 C 0 km/h
56 14-09-2011 11:09:02 13.7 C 6.75 g/m*3 13.7 C 0 km/h
57 14-09-2011 11:21:02 14.1 C 6.67 g/m*3 14.1 C 0 km/h
58 14-09-2011 11:33:02 14.3 C 6.76 g/m*3 14.3 C 0 km/h
59 14-09-2011 11:45:02 14.5 C 6.34 g/m*3 14.5 C 0 km/h
60 14-09-2011 11:57:02 14.6 C 6.26 g/m*3 14.6 C 0 km/h
61 14-09-2011 12:09:01 15 C 5.9 g/m*3 15 C 0 km/h
62 14-09-2011 12:21:02 15.4 C 6.04 g/m*3 15.4 C 0 km/h
63 14-09-2011 12:33:01 15.3 C 6.27 g/m*3 15.3 C 0 km/h
64 14-09-2011 12:45:01 16 C 6.4 g/m*3 16 C 0 km/h
65 14-09-2011 12:57:02 16 C 6.13 g/m*3 16 C 0 km/h
66 14-09-2011 13:09:01 16.5 C 6.18 g/m*3 16.5 C 0 km/h
67 14-09-2011 13:21:01 16.9 C 6.47 g/m*3 16.9 C 0 km/h
68 14-09-2011 13:33:02 17 C 6.08 g/m*3 17 C 0 km/h
69 14-09-2011 13:45:02 18.3 C 6.25 g/m*3 18.3 C 0 km/h
70 14-09-2011 13:57:02 18.7 C 6.08 g/m*3 18.7 C 0 km/h
71 14-09-2011 14:09:02 18.4 C 5.98 g/m*3 18.4 C 0 km/h
72 14-09-2011 14:21:01 18.2 C 5.91 g/m*3 18.2 C 0 km/h
73 14-09-2011 14:33:02 18.5 C 5.85 g/m*3 18.5 C 0 km/h
74 14-09-2011 14:45:01 19.1 C 5.9 g/m*3 19.1 C 0 km/h
75 14-09-2011 14:57:01 19.7 C 6.11 g/m*3 19.7 C 0 km/h
Sensor: Nr:Datum:Temp:Abs-Feuchte:Windchill:Wind:
Aussen-T/F 76 14-09-2011 15:09:02 18.9 C 5.83 g/m*3 18.9 C 0 km/h
77 14-09-2011 15:21:02 22.5 C 5.59 g/m*3 22.5 C 0 km/h
78 14-09-2011 15:33:02 22.1 C 5.27 g/m*3 22.1 C 0 km/h
79 14-09-2011 15:45:02 22.2 C 4.91 g/m*3 22.2 C 0 km/h
80 14-09-2011 15:57:02 22.1 C 5.08 g/m*3 22.1 C 0 km/h
81 14-09-2011 16:09:02 23.3 C 5.23 g/m*3 23.3 C 0 km/h
82 14-09-2011 16:21:02 23.4 C 5.26 g/m*3 23.4 C 0 km/h
83 14-09-2011 16:33:01 24 C 5 g/m*3 24 C 0 km/h
84 14-09-2011 16:45:02 22.8 C 5.08 g/m*3 22.8 C 0 km/h
85 14-09-2011 16:57:02 24.1 C 5.03 g/m*3 24.1 C 0 km/h
86 14-09-2011 17:09:01 24.4 C 5.34 g/m*3 24.4 C 0 km/h
87 14-09-2011 17:21:01 20.7 C 5.94 g/m*3 20.7 C 0 km/h
88 14-09-2011 17:33:02 22.1 C 5.27 g/m*3 22.1 C 0 km/h
89 14-09-2011 17:45:02 21.1 C 4.97 g/m*3 21.1 C 0 km/h
90 14-09-2011 17:57:02 22.9 C 4.7 g/m*3 22.9 C 0 km/h
91 14-09-2011 18:09:02 21 C 4.58 g/m*3 21 C 0 km/h
92 14-09-2011 18:21:02 19.1 C 5.25 g/m*3 19.1 C 0 km/h
93 14-09-2011 18:33:02 18.3 C 5.32 g/m*3 18.3 C 0 km/h
94 14-09-2011 18:45:02 17.8 C 5.46 g/m*3 17.8 C 0 km/h
95 14-09-2011 18:57:02 16.4 C 6.42 g/m*3 16.4 C 0 km/h
96 14-09-2011 19:09:02 15.9 C 6.64 g/m*3 15.9 C 0 km/h
97 14-09-2011 19:21:02 16.6 C 5.79 g/m*3 16.6 C 0 km/h
98 14-09-2011 19:33:02 16.1 C 6.03 g/m*3 16.1 C 0 km/h
99 14-09-2011 19:45:01 15.3 C 6.66 g/m*3 15.3 C 0 km/h
100 14-09-2011 19:57:01 14.1 C 6.8 g/m*3 14.1 C 0 km/h
Sensor: Nr:Datum:Temp:Abs-Feuchte:Windchill:Wind:
Aussen-T/F 101 14-09-2011 20:09:02 13.6 C 6.94 g/m*3 13.6 C 0 km/h
102 14-09-2011 20:21:02 13.4 C 6.86 g/m*3 13.4 C 0 km/h
103 14-09-2011 20:33:02 13.1 C 6.85 g/m*3 13.1 C 0 km/h
104 14-09-2011 20:45:02 12.8 C 6.94 g/m*3 12.8 C 0 km/h
105 14-09-2011 20:57:02 12.7 C 6.79 g/m*3 12.7 C 0 km/h
106 14-09-2011 21:09:01 12.7 C 6.9 g/m*3 12.7 C 0 km/h
107 14-09-2011 21:21:02 12.7 C 7.12 g/m*3 12.7 C 0 km/h
108 14-09-2011 21:33:01 13 C 7.14 g/m*3 13 C 0 km/h
109 14-09-2011 21:45:02 13.7 C 6.87 g/m*3 13.7 C 0 km/h
110 14-09-2011 21:57:02 13.4 C 7.09 g/m*3 13.4 C 0 km/h
111 14-09-2011 22:10:02 13.1 C 7.3 g/m*3 13.1 C 0 km/h
112 14-09-2011 22:22:02 13.4 C 7.32 g/m*3 13.4 C 0 km/h
113 14-09-2011 22:34:02 13.4 C 7.44 g/m*3 13.4 C 0 km/h
114 14-09-2011 22:46:02 13.2 C 7.46 g/m*3 13.2 C 0 km/h
115 14-09-2011 22:58:03 13.7 C 7.46 g/m*3 13.7 C 0 km/h
116 14-09-2011 23:10:03 13.7 C 7.22 g/m*3 13.7 C 0 km/h
117 14-09-2011 23:22:03 13.6 C 7.53 g/m*3 13.6 C 0 km/h
118 14-09-2011 23:34:03 13.6 C 7.3 g/m*3 13.6 C 0 km/h
119 14-09-2011 23:46:03 12.8 C 7.5 g/m*3 12.8 C 0 km/h
120 14-09-2011 23:58:03 11.9 C 7.31 g/m*3 11.9 C 0 km/h

Legende:
   Min
   Max


Maximal/Minimal-Werte vom 14.09.2011 - 14.09.2011

Sensor Min Max Avg
Temp
(Aussen-T/F)
9.3 °C
14-09-2011  06:57:02
24.4 °C
14-09-2011  17:09:01
14.44 °C
Abs-Feuchte
(Aussen-T/F)
4.58 g/m*3
14-09-2011  18:09:02
9.41 g/m*3
14-09-2011  01:33:03
6.99 g/m*3
Windchill
(Aussen-T/F)
9.3 C
14-09-2011  06:57:02
24.4 C
14-09-2011  17:09:01
14.32 C

Die Daten stammen von einer Davis Vantage Pro 2 Wetter-Station und werden unter Linux mit der Software wview2wettercgi und aufbereitet. Alle Angaben erfolgen ohne Gewähr für ihre Vollständigkeit oder Richtigkeit.
Kontakt: Rainer Krienke krienke@uni-koblenz.de . Meine Webseiten an der Uni Koblenz oder privat.
Version: $Revision: 0.78 $